Regional Weather Roundup
Issued by NWS Grand Forks, ND

Home | Current Version | Previous Version | Graphics & Text | Print | Product List | Glossary On
Versions: 1 2 3 4 5 6 7 8 9 10 11 12 13 14 15 16 17 18 19 20 21 22 23 24 25 26 27 28 29 30 31 32 33 34 35 36 37 38 39 40 41 42 43 44 45 46 47 48 49 50
000
ASUS43 KFGF 280010
RWRFGF
PRAIRIE TO PINES  WEATHER ROUNDUP
NATIONAL WEATHER SERVICE EASTERN NORTH DAKOTA/GRAND FORKS ND
700 PM CDT SAT MAY 27 2017

 **SATELLITE DATA USED TO AUGMENT SKY COVER AT AUTOMATED STATIONS**
 *****  WEATHER ACROSS EASTERN NORTH DAKOTA  *****

CITY           SKY/WX    TMP DP  RH WIND       PRES   REMARKS
GRAND FORKS    PTSUNNY   70  48  45 SE5       29.69F
6HR MIN TEMP:  66; 6HR MAX TEMP:  78; 6HR PCP:  0.01;

GRAND FRKS AFB FAIR      69  40  34 W9        29.70F
DEVILS LAKE    LGT RAIN  52  46  80 NW24G35   29.79R
6HR MIN TEMP:  52; 6HR MAX TEMP:  73; 6HR PCP: TRACE;

FARGO          FAIR      75  37  25 W15G24    29.72S
WAHPETON ARPT  MOCLDY    72  37  28 SW21G30   29.76S
$$

 ***** WEATHER ACROSS CENTRAL AND WESTERN NORTH DAKOTA  *****

CITY           SKY/WX    TMP DP  RH WIND       PRES   REMARKS
BISMARCK       CLOUDY    64  45  49 N24G35    29.84R
6HR MIN TEMP:  64; 6HR MAX TEMP:  78; 6HR PCP: TRACE;

MINOT          FAIR      63  43  48 NW18      29.81R
6HR MIN TEMP:  53; 6HR MAX TEMP:  75; 6HR PCP:  0.03;

JAMESTOWN      FAIR      68  40  35 NW15      29.75R
6HR MIN TEMP:  68; 6HR MAX TEMP:  75;

MINOT AFB      FAIR      62  45  52 N10       29.80S
GARRISON         N/A     62  49  62 NW8       29.82F
WILLISTON      FAIR      75  34  22 NW22G39   29.84R
6HR MIN TEMP:  65; 6HR MAX TEMP:  76; 6HR PCP: TRACE;

DICKINSON      FAIR      69  32  25 NW21G30   29.86F
6HR MIN TEMP:  58; 6HR MAX TEMP:  74; 6HR PCP: TRACE;

HETTINGER      PTSUNNY   67  42  40 NW18      29.93R
6HR MIN TEMP:  56; 6HR MAX TEMP:  75; 6HR PCP:  0.01;

$$

 *****  OTHER AIRPORT OBSERVATIONS IN OUR AREA  *****

CITY           SKY/WX    TMP DP  RH WIND       PRES   REMARKS
WALHALLA       NOT AVBL
GRAFTON AIRPOR LGT RAIN  61  50  67 W16G24    29.76R
VALLEY CITY AR MOCLDY    72  37  28 W17G23    29.75F
CANDO          NOT AVBL
CAVALIER APRT  FAIR      64  46  52 N6        29.68F
GWINNER        PTCLDY    75  37  25 MISG      29.76F
SHEYENNE NWR     N/A     72  41  33 W12       29.95S
ROLLA          FAIR      55  46  71 SW8       29.79S
 ***** THE ABOVE OBSERVATIONS ARE NON NWS ARE NOT QUALITY
       CONTROLLED AND MAY MIS-REPORT RAIN FOR SNOW...
$$

  *****  WEATHER ACROSS NORTHERN MINNESOTA  *****

CITY           SKY/WX    TMP DP  RH WIND       PRES   REMARKS
FLAG ISLAND    FAIR      64  45  48 SE5       29.68F
WARROAD        FAIR      70  43  37 W7        29.70S
ROSEAU         FAIR      66  45  45 W10G16    29.71R
HALLOCK        FAIR      66  46  48 CALM      29.68F
THF RVR FALLS  NOT AVBL
BAUDETTE       LGT RAIN  67  43  41 SW12G28   29.72R
6HR MIN TEMP:  63; 6HR MAX TEMP:  75; 6HR PCP:  0.02;

WASKISH        FAIR      66  46  48 W6        29.74S
CROOKSTON      LGT RAIN  61  46  59 N12G22    29.72R
STEPHEN NDAWN    N/A     68  43  40 NE7         N/A
GREENBUSH NDAW   N/A     66  41  39 N6          N/A
$$
  *****  WEATHER ACROSS CENTRAL AND WEST MINNESOTA  *****

CITY           SKY/WX    TMP DP  RH WIND       PRES   REMARKS
FOSSTON        FAIR      70  37  30 W7        29.74S
BEMIDJI        PTSUNNY   68  41  37 S13G20    29.74S
PARK RAPIDS    FAIR      70  36  28 SW16G22   29.76F
6HR MIN TEMP:  70; 6HR MAX TEMP:  77; 6HR PCP: TRACE;

ELBOW LAKE     FAIR      67  47  47 S9        29.80F
6HR MIN TEMP:  63; 6HR MAX TEMP:  74;

WADENA         FAIR      70  43  37 SW16G22   29.78S
DETROIT LAKES  FAIR      72  37  28 SW7       29.76F
MOORHEAD       FAIR      75  37  25 W15       29.73F
FERGUS FALLS   FAIR      70  46  43 SW12      29.75F
MORRIS MN      FAIR      72  45  37 SW8       29.81S
STAPLES        FAIR      70  39  32 SW10      29.79S
$$
  *****  WEATHER ELSEWHERE ACROSS MINNESOTA  *****

CITY           SKY/WX    TMP DP  RH WIND       PRES   REMARKS
DULUTH         FAIR      70  43  37 W12       29.79R
6HR MIN TEMP:  70; 6HR MAX TEMP:  75;

INTRNTL FALLS  PTSUNNY   66  40  38 NW12      29.73S
6HR MIN TEMP:  65; 6HR MAX TEMP:  76;

ELY            FAIR      72  36  26 SW14      29.75S
CLOQUET        FAIR      72  36  26 SW12      29.79S
WHEATON        FAIR      72  37  28 SW12G23   29.80F
BRAINERD       FAIR      70  42  36 SW16G23   29.80S
6HR MIN TEMP:  69; 6HR MAX TEMP:  74;

HIBBING        FAIR      71  39  31 SW9G17    29.76S
6HR MIN TEMP:  68; 6HR MAX TEMP:  73;

ALEXANDRIA     CLOUDY    69  42  37 SW7       29.83S
6HR MIN TEMP:  66; 6HR MAX TEMP:  73;

SAINT CLOUD    CLOUDY    69  45  41 SW6       29.83S
6HR MIN TEMP:  68; 6HR MAX TEMP:  73;

MINNEAPOLIS    FAIR      71  47  42 SW8       29.86S
6HR MIN TEMP:  68; 6HR MAX TEMP:  71; 6HR PCP: TRACE;

$$

  *****  WEATHER ACROSS SOUTH DAKOTA  *****

CITY           SKY/WX    TMP DP  RH WIND       PRES   REMARKS
SIOUX FALLS    PTSUNNY   67  50  54 VRB5      29.90S
6HR MIN TEMP:  62; 6HR MAX TEMP:  69; 6HR PCP: TRACE;

BROOKINGS      FAIR      66  48  52 W9        29.89S
WATERTOWN      FAIR      65  45  48 SW12      29.85F
6HR MIN TEMP:  65; 6HR MAX TEMP:  71;

HURON          PTSUNNY   72  44  36 SW7       29.85F
6HR MIN TEMP:  65; 6HR MAX TEMP:  73; 6HR PCP: TRACE;

SISSETON         N/A     71  43  36 SW16G24   29.79F
ABERDEEN       PTSUNNY   76  35  22 NW16G24   29.80S
6HR MIN TEMP:  72; 6HR MAX TEMP:  79;

MITCHELL       FAIR      70  47  43 SW8       29.90F
PIERRE         FAIR      74  36  25 NW16G22   29.87S
6HR MIN TEMP:  67; 6HR MAX TEMP:  77;

MOBRIDGE       LGT RAIN  69  41  36 NW14      29.83R
RAPID CITY     FAIR      71  34  25 NW14      29.99S
6HR MIN TEMP:  65; 6HR MAX TEMP:  74;

$$

  *****  SOME WEATHER IN NEARBY STATES *****

CITY           SKY/WX    TMP DP  RH WIND       PRES   REMARKS
GLASGOW MT     FAIR      78  32  18 NW23G36   29.92S
6HR MIN TEMP:  71; 6HR MAX TEMP:  79;

GREAT FALLS MT FAIR      74  33  22 W5        30.10R
6HR MIN TEMP:  68; 6HR MAX TEMP:  76;

CHEYENNE WY    FAIR      56  31  38 N15       30.18S
6HR MIN TEMP:  48; 6HR MAX TEMP:  57; 6HR PCP:  0.01;

SCOTTSBLUFF NE CLOUDY    63  41  44 W7        30.10S
6HR MIN TEMP:  58; 6HR MAX TEMP:  67; 6HR PCP: TRACE;

OMAHA NE       PTSUNNY   69  53  56 NE7       29.89S
6HR MIN TEMP:  67; 6HR MAX TEMP:  72;

DES MOINES IA  PTSUNNY   67  57  70 NE10      29.87S
6HR MIN TEMP:  63; 6HR MAX TEMP:  69; 6HR PCP:  0.02;

DAVENPORT IA   CLOUDY    70  63  78 N7        29.85R
6HR MIN TEMP:  70; 6HR MAX TEMP:  76;

CHICAGO IL     PTSUNNY   70  54  56 E9        29.85S
6HR MIN TEMP:  70; 6HR MAX TEMP:  78;

EAU CLAIRE WI  PTSUNNY   68  47  46 SW8       29.86R
6HR MIN TEMP:  67; 6HR MAX TEMP:  70; 6HR PCP: TRACE;

LA CROSSE WI   LGT RAIN  66  52  60 NW6       29.88R
6HR MIN TEMP:  66; 6HR MAX TEMP:  77; 6HR PCP: TRACE;

$$

  *****  SOME NATIONAL WEATHER *****

CITY           SKY/WX    TMP DP  RH WIND       PRES   REMARKS
LA GUARDIA NY  CLOUDY    68  55  63 SE10      29.88R
6HR MIN TEMP:  68; 6HR MAX TEMP:  72;

RALEIGH NC     FAIR      80  66  62 SW6       29.87R
6HR MIN TEMP:  80; 6HR MAX TEMP:  88;

ATLANTA GA     MOCLDY    79  68  69 SW9       29.98S
6HR MIN TEMP:  79; 6HR MAX TEMP:  84;

NEW ORLEANS LA FAIR      84  75  74 S10       29.97F HX  92
6HR MIN TEMP:  84; 6HR MAX TEMP:  89;

OKLAHOMA CITY  FAIR      93  55  27 W7        29.72F HX  91
6HR MIN TEMP:  89; 6HR MAX TEMP:  95; 6HR PCP: TRACE;

ALBUQUERQUE NM FAIR      83   9   6 SW15      30.01S
6HR MIN TEMP:  74; 6HR MAX TEMP:  84;

SALT LAKE CITY FAIR      70  35  27 NW5       30.20S
6HR MIN TEMP:  63; 6HR MAX TEMP:  71;

LOS ANGELES CA FAIR      67  52  58 W16       30.03F
6HR MIN TEMP:  65; 6HR MAX TEMP:  68;

BOISE ID       FAIR



USA.gov is the U.S. government's official web portal to all federal, state and local government web resources and services.